Location: Koslow
(50.3020°N, 18.5663°E)
Time: 19:39:38
(UTC+00:00)

X-37B - Visible Passes

Search period start: 01 August 2021 00:00
Search period end: 11 August 2021 00:00
Orbit: 383 x 392 km, 45.0° (Epoch: 01 July)

Date Brightness Start Highest point End Pass type
(mag) Time Alt. Az. Time Alt. Az. Time Alt. Az.
02 Aug 2.8 02:36:25 10° SSW 02:38:27 16° SSE 02:40:30 10° ESE visible
03 Aug 3.1 01:39:35 10° SSE 01:40:21 11° SSE 01:41:18 10° SE visible
04 Aug 2.3 02:15:59 12° SSW 02:18:08 21° SSE 02:20:38 10° ESE visible
05 Aug 2.6 01:20:06 16° SSE 01:20:06 16° SSE 01:22:01 10° ESE visible
06 Aug 1.9 01:56:29 19° SSW 01:57:50 26° SSE 02:00:35 10° ESE visible
07 Aug 2.5 01:00:37 18° SE 01:00:37 18° SE 01:02:09 10° ESE visible
07 Aug 1.6 02:32:55 10° WSW 02:35:48 31° S 02:38:41 10° ESE visible
08 Aug 1.5 01:37:06 29° SSW 01:37:34 30° S 01:40:26 10° ESE visible
09 Aug 3.0 00:41:21 15° ESE 00:41:21 15° ESE 00:42:06 10° ESE visible
09 Aug 1.6 02:13:39 16° WSW 02:15:33 30° S 02:18:24 10° ESE visible
10 Aug 1.8 01:18:01 28° SSE 01:18:01 28° SSE 01:20:12 10° ESE visible
10 Aug 2.1 02:51:00 10° WSW 02:53:28 20° SSW 02:55:56 10° SSE visible
